Location: McFarlands Corners
(41.4117°N, 81.3382°W)
Time: 18:10:58
(UTC+00:00)

Vanguard 1 Rocket - Pass Details

Date: 21 February 2026
Orbit: 653 x 4214 km, 34.3° (Epoch: 8 March)

Event Time Altitude Azimuth Distance (km) Brightness Sun altitude
Rises 17:36:56 0° 231° (SW) 3,687 11.0 38.2°
Reaches altitude 10° 17:39:09 10° 224° (SW) 2,994 10.8 38.2°
Maximum altitude 17:46:12 45° 153° (SSE) 2,133 10.8 38.2°
Drops below altitude 10° 17:59:18 10° 88° (E) 5,472 11.4 38.0°
Sets 18:05:01 0° 84° (E) 7,071 11.8 37.9°
